{"data":{"norad_id":68874,"epoch":"2026-05-24T23:11:31.197120Z","epoch_age_seconds":84773,"freshness":"FRESH","line1":"1 68874U 26095L   26144.96633330  .00013886  00000+0  39869-3 0  9998","line2":"2 68874  51.8752 354.8912 0008166 214.4237 145.6221 15.36096966  4151","mean_motion":15.36096966,"eccentricity":0.0008166,"inclination_deg":51.8752,"raan_deg":354.8912,"arg_perigee_deg":214.4237,"mean_anomaly_deg":145.6221,"bstar":0.00039869,"rev_number":415,"period_min":93.744082038633,"perigee_km":452.0820282842,"apogee_km":463.24625871176,"semimajor_km":6835.801143498,"source":"CELESTRAK","updated_at":"2026-05-25T13:38:08.647399Z"}}